Starlink 33799

operational
NORAD ID: 63447 Int'l Des: 2025-069 Owner: SPXS Country: US Constellation: starlink
LEOCIRCULAR

Starlink 33799について

説明を読み込み中...

リアルタイム位置

3D地球を読み込み中...

次回通過

高度履歴

Altitude vs Time

uPlot chart will show altitude changes over time

軌道要素

1 63447U 25069Q 25305.49497288 .00011486 00000-0 39933-3 0 9992
2 63447 53.1581 18.2081 0001201 98.7853 261.3284 15.30199084 33667
Epoch: Nov 1, 2025 • Age: 15 hours

現在のステータス

高度 493.4 km
速度 7.62 km/s
衛星直下点 -50.49°S, 139.52°W
打ち上げ日 Apr 4, 2025
運用期間 0.5 years
タイプ internet

技術仕様

分類 Payload
質量 575.00 kg
乾燥質量 530.00 kg
総質量 575.00 kg
長さ 0.30 m
直径 4.10 m
スパン 29.00 m
形状 Box + pan
製造者 SPXS
バスタイプ Starlink V2MO
フェーズステータス In Orbit
所有者/国 SPXS/US

大規模コンステレーション

Loading constellations...